Hourly Weather Bolshoe Yakshino

Today, 27 July, Tuesday

Time Temperature Precipitation Wind Pressure Humidity
00:00 +16°C° 0 mm 1 mps 745 mmHg 74%
01:00 +16°C° 0 mm 1 mps 745 mmHg 76%
02:00 +15°C° 0 mm 1 mps 745 mmHg 78%
03:00 +16°C° 0 mm 1 mps 745 mmHg 77%
04:00 +16°C° 0 mm 1 mps 745 mmHg 76%
05:00 +16°C° 0 mm 1 mps 745 mmHg 76%
06:00 +20°C° 0 mm 1 mps 745 mmHg 67%
07:00 +22°C° 0 mm 1 mps 745 mmHg 59%
08:00 +25°C° 0 mm 2 mps 745 mmHg 51%
09:00 +26°C° 0 mm 1 mps 745 mmHg 47%
10:00 +28°C° 0 mm 1 mps 745 mmHg 43%
11:00 +29°C° 0 mm 1 mps 744 mmHg 39%
12:00 +29°C° 0 mm 1 mps 744 mmHg 41%
13:00 +29°C° 0 mm 1 mps 744 mmHg 43%
14:00 +28°C° 0 mm 1 mps 743 mmHg 45%
15:00 +27°C° 0 mm 1 mps 743 mmHg 50%
16:00 +26°C° 0 mm 1 mps 743 mmHg 54%
17:00 +25°C° 0 mm 1 mps 743 mmHg 59%
18:00 +24°C° 0 mm 1 mps 742 mmHg 63%
19:00 +23°C° 0 mm 1 mps 742 mmHg 67%
20:00 +21°C° 0 mm 2 mps 742 mmHg 71%
21:00 +21°C° 0 mm 2 mps 742 mmHg 71%
22:00 +20°C° 0 mm 2 mps 742 mmHg 72%
23:00 +20°C° 0 mm 2 mps 742 mmHg 73%

Tomorrow, 28 July, Wednesday

Time Temperature Precipitation Wind Pressure Humidity
00:00 +20°C° 0 mm 2 mps 741 mmHg 73%
01:00 +19°C° 0 mm 2 mps 741 mmHg 74%
02:00 +19°C° 0 mm 2 mps 741 mmHg 75%
03:00 +19°C° 0 mm 2 mps 740 mmHg 76%
04:00 +19°C° 0 mm 2 mps 740 mmHg 77%
05:00 +19°C° 0 mm 2 mps 740 mmHg 78%
06:00 +20°C° 0 mm 2 mps 739 mmHg 74%
07:00 +21°C° 0 mm 2 mps 739 mmHg 69%
08:00 +24°C° 0 mm 3 mps 739 mmHg 65%
09:00 +25°C° 0 mm 3 mps 739 mmHg 60%
10:00 +27°C° 0 mm 3 mps 738 mmHg 54%
11:00 +29°C° 0 mm 4 mps 738 mmHg 49%
12:00 +27°C° 0.5 mm 4 mps 738 mmHg 58%
13:00 +26°C° 0.5 mm 4 mps 737 mmHg 68%
14:00 +25°C° 0.5 mm 4 mps 737 mmHg 77%
15:00 +24°C° 0.8 mm 3 mps 737 mmHg 83%
16:00 +21°C° 0.8 mm 3 mps 737 mmHg 89%
17:00 +20°C° 0.8 mm 3 mps 736 mmHg 95%
18:00 +20°C° 0.2 mm 2 mps 736 mmHg 96%
19:00 +19°C° 0.2 mm 2 mps 736 mmHg 97%
20:00 +20°C° 0.2 mm 1 mps 736 mmHg 98%
21:00 +19°C° 0.1 mm 1 mps 736 mmHg 98%
22:00 +19°C° 0.1 mm 1 mps 735 mmHg 99%
23:00 +19°C° 0.1 mm 1 mps 735 mmHg 99%

Day after tomorrow, 29 July, Thursday

Time Temperature Precipitation Wind Pressure Humidity
00:00 +18°C° 0 mm 2 mps 735 mmHg 99%
01:00 +17°C° 0 mm 2 mps 735 mmHg 99%
02:00 +17°C° 0 mm 2 mps 735 mmHg 99%
03:00 +17°C° 0 mm 2 mps 735 mmHg 98%
04:00 +17°C° 0 mm 2 mps 735 mmHg 98%
05:00 +17°C° 0 mm 2 mps 735 mmHg 98%
06:00 +18°C° 0 mm 2 mps 735 mmHg 92%
07:00 +20°C° 0 mm 2 mps 735 mmHg 86%
08:00 +21°C° 0 mm 3 mps 735 mmHg 81%
09:00 +24°C° 0 mm 3 mps 735 mmHg 71%
10:00 +25°C° 0 mm 3 mps 735 mmHg 62%
11:00 +27°C° 0 mm 4 mps 735 mmHg 53%
12:00 +27°C° 0 mm 4 mps 735 mmHg 53%
13:00 +27°C° 0 mm 4 mps 735 mmHg 53%
14:00 +27°C° 0 mm 4 mps 735 mmHg 53%
15:00 +26°C° 0 mm 4 mps 734 mmHg 56%
16:00 +26°C° 0 mm 4 mps 734 mmHg 58%
17:00 +25°C° 0 mm 4 mps 734 mmHg 61%
18:00 +24°C° 0 mm 3 mps 734 mmHg 69%
19:00 +21°C° 0 mm 3 mps 734 mmHg 78%
20:00 +19°C° 0 mm 2 mps 734 mmHg 86%
21:00 +18°C° 0 mm 2 mps 734 mmHg 88%
22:00 +18°C° 0 mm 2 mps 734 mmHg 90%
23:00 +17°C° 0 mm 2 mps 734 mmHg 92%

30 July, Friday

Time Temperature Precipitation Wind Pressure Humidity
00:00 +16°C° 0 mm 2 mps 734 mmHg 93%
01:00 +16°C° 0 mm 2 mps 734 mmHg 94%
02:00 +16°C° 0 mm 2 mps 734 mmHg 94%
03:00 +16°C° 0 mm 2 mps 734 mmHg 94%
04:00 +16°C° 0 mm 2 mps 734 mmHg 94%
05:00 +16°C° 0 mm 2 mps 734 mmHg 94%
06:00 +18°C° 0 mm 2 mps 734 mmHg 85%
07:00 +20°C° 0 mm 3 mps 734 mmHg 75%
08:00 +22°C° 0 mm 3 mps 734 mmHg 66%
09:00 +24°C° 0 mm 3 mps 734 mmHg 58%
10:00 +25°C° 0 mm 4 mps 734 mmHg 51%
11:00 +26°C° 0 mm 4 mps 734 mmHg 44%
12:00 +25°C° 0 mm 3 mps 734 mmHg 50%
13:00 +24°C° 0 mm 3 mps 734 mmHg 56%
14:00 +21°C° 0 mm 2 mps 734 mmHg 63%
15:00 +23°C° 0 mm 2 mps 733 mmHg 61%
16:00 +23°C° 0 mm 2 mps 733 mmHg 59%
17:00 +24°C° 0 mm 2 mps 733 mmHg 57%
18:00 +23°C° 0 mm 2 mps 733 mmHg 60%
19:00 +21°C° 0 mm 2 mps 733 mmHg 62%
20:00 +20°C° 0 mm 3 mps 733 mmHg 65%
21:00 +19°C° 0 mm 2 mps 733 mmHg 67%
22:00 +18°C° 0 mm 2 mps 733 mmHg 69%
23:00 +17°C° 0 mm 2 mps 733 mmHg 71%

31 July, Saturday

Time Temperature Precipitation Wind Pressure Humidity
00:00 +17°C° 0 mm 3 mps 733 mmHg 71%
01:00 +17°C° 0 mm 3 mps 733 mmHg 71%
02:00 +17°C° 0 mm 3 mps 733 mmHg 70%
03:00 +16°C° 0 mm 3 mps 733 mmHg 72%
04:00 +16°C° 0 mm 3 mps 733 mmHg 73%
05:00 +14°C° 0 mm 3 mps 732 mmHg 75%
06:00 +17°C° 0 mm 3 mps 733 mmHg 67%
07:00 +19°C° 0 mm 4 mps 733 mmHg 59%
08:00 +21°C° 0 mm 5 mps 733 mmHg 51%
09:00 +23°C° 0 mm 5 mps 733 mmHg 47%
10:00 +24°C° 0 mm 6 mps 733 mmHg 42%
11:00 +26°C° 0 mm 6 mps 733 mmHg 37%
12:00 +26°C° 0 mm 6 mps 733 mmHg 36%
13:00 +26°C° 0 mm 5 mps 733 mmHg 35%
14:00 +27°C° 0 mm 5 mps 733 mmHg 33%
15:00 +27°C° 0 mm 5 mps 733 mmHg 36%
16:00 +26°C° 0 mm 4 mps 733 mmHg 39%
17:00 +26°C° 0 mm 3 mps 733 mmHg 42%
18:00 +24°C° 0 mm 3 mps 733 mmHg 49%
19:00 +21°C° 0 mm 2 mps 733 mmHg 57%
20:00 +18°C° 0 mm 2 mps 733 mmHg 65%
21:00 +18°C° 0 mm 2 mps 733 mmHg 66%
22:00 +17°C° 0 mm 2 mps 733 mmHg 68%
23:00 +18°C° 0 mm 1 mps 733 mmHg 69%

1 August, Sunday

Time Temperature Precipitation Wind Pressure Humidity
00:00 +16°C° 0 mm 1 mps 733 mmHg 70%
01:00 +16°C° 0 mm 1 mps 733 mmHg 71%
02:00 +16°C° 0 mm 1 mps 733 mmHg 72%
03:00 +16°C° 0 mm 1 mps 733 mmHg 72%
04:00 +16°C° 0 mm 1 mps 733 mmHg 72%
05:00 +16°C° 0 mm 1 mps 732 mmHg 72%
06:00 +18°C° 0 mm 2 mps 732 mmHg 68%
07:00 +20°C° 0 mm 2 mps 732 mmHg 63%
08:00 +23°C° 0 mm 2 mps 732 mmHg 59%
09:00 +24°C° 0.1 mm 3 mps 732 mmHg 55%
10:00 +26°C° 0.1 mm 3 mps 732 mmHg 51%
11:00 +27°C° 0.1 mm 3 mps 732 mmHg 47%
12:00 +26°C° 0.1 mm 4 mps 732 mmHg 50%
13:00 +26°C° 0.1 mm 4 mps 732 mmHg 53%
14:00 +25°C° 0.1 mm 4 mps 733 mmHg 57%
15:00 +25°C° 0 mm 4 mps 733 mmHg 53%
16:00 +26°C° 0 mm 4 mps 733 mmHg 50%
17:00 +26°C° 0 mm 3 mps 733 mmHg 46%
18:00 +24°C° 0 mm 3 mps 733 mmHg 54%
19:00 +20°C° 0 mm 2 mps 733 mmHg 62%
20:00 +18°C° 0 mm 2 mps 734 mmHg 71%
21:00 +17°C° 0 mm 2 mps 734 mmHg 75%
22:00 +16°C° 0 mm 2 mps 734 mmHg 78%
23:00 +15°C° 0 mm 1 mps 734 mmHg 82%
Show more

We Need Your Consent

Meteoprog and our Service Providers may store and access personal data such as cookies, device identifiers or other similar technologies on your device and process such data to personalise content and ads, as well as provide social media features and to analyse the traffic.

  • Store and/or access information on your device

    Cookies, device identifiers or other information can be stored or accessed on your device for the purposes indicated above.

  • Personalised ads and content, ad and content measurement, audience insights, and products development

    Ads and content can be personalised based on a profile. More data can be added to better personalise ads and content. Ad and content performance can be measured. Insights about the audience who saw the ads and content can be derived. Such data can be used to develop or improve user’s experience, systems and software.

By clicking ‘I Agree’ you will allow the use of indicated cookies, device identifiers, web beacons or other similar technologies. Your settings can be changed in the browser on your device.

For certain purposes, legitimate interests may be relied on, rather than consent. You can read more about this in our Privacy and Cookie Policy.